Previsão horária em Abaigar

Hoje, 14 Abril, Quarta-feira

Tempo Temperatura Precipitação Vento Pressão Humidade
00:00 +8°C° 0 mm 1 m/s 710 mmHg 63%
01:00 +8°C° 0 mm 1 m/s 710 mmHg 62%
02:00 +8°C° 0 mm 1 m/s 710 mmHg 61%
03:00 +8°C° 0 mm 1 m/s 709 mmHg 60%
04:00 +8°C° 0 mm 1 m/s 709 mmHg 60%
05:00 +8°C° 0 mm 1 m/s 709 mmHg 61%
06:00 +8°C° 0 mm 1 m/s 709 mmHg 60%
07:00 +10°C° 0 mm 1 m/s 710 mmHg 57%
08:00 +11°C° 0 mm 1 m/s 710 mmHg 54%
09:00 +12°C° 0 mm 1 m/s 710 mmHg 50%
10:00 +13°C° 0 mm 1 m/s 710 mmHg 48%
11:00 +15°C° 0 mm 2 m/s 709 mmHg 45%
12:00 +16°C° 0 mm 2 m/s 709 mmHg 42%
13:00 +16°C° 0 mm 3 m/s 709 mmHg 42%
14:00 +16°C° 0 mm 3 m/s 709 mmHg 42%
15:00 +15°C° 0 mm 4 m/s 708 mmHg 41%
16:00 +14°C° 0 mm 4 m/s 708 mmHg 46%
17:00 +12°C° 0 mm 4 m/s 708 mmHg 51%
18:00 +10°C° 0 mm 4 m/s 708 mmHg 56%
19:00 +8°C° 0 mm 3 m/s 708 mmHg 61%
20:00 +5°C° 0 mm 3 m/s 709 mmHg 67%
21:00 +4°C° 0 mm 2 m/s 709 mmHg 73%
22:00 +4°C° 0 mm 2 m/s 709 mmHg 72%
23:00 +4°C° 0 mm 2 m/s 709 mmHg 71%

Amanhã, 15 Abril, Quinta-feira

Tempo Temperatura Precipitação Vento Pressão Humidade
00:00 +3°C° 0 mm 2 m/s 709 mmHg 70%
01:00 +3°C° 0 mm 2 m/s 709 mmHg 70%
02:00 +3°C° 0 mm 2 m/s 709 mmHg 70%
03:00 +4°C° 0 mm 1 m/s 709 mmHg 71%
04:00 +4°C° 0 mm 1 m/s 709 mmHg 72%
05:00 +3°C° 0 mm 2 m/s 709 mmHg 73%
06:00 +3°C° 0 mm 2 m/s 709 mmHg 74%
07:00 +5°C° 0 mm 2 m/s 709 mmHg 66%
08:00 +7°C° 0 mm 2 m/s 709 mmHg 57%
09:00 +9°C° 0 mm 2 m/s 710 mmHg 49%
10:00 +10°C° 0 mm 2 m/s 709 mmHg 45%
11:00 +12°C° 0 mm 2 m/s 709 mmHg 42%
12:00 +13°C° 0 mm 3 m/s 709 mmHg 38%
13:00 +13°C° 0 mm 3 m/s 708 mmHg 37%
14:00 +13°C° 0 mm 4 m/s 708 mmHg 36%
15:00 +13°C° 0 mm 5 m/s 708 mmHg 36%
16:00 +10°C° 0 mm 5 m/s 708 mmHg 42%
17:00 +8°C° 0 mm 4 m/s 708 mmHg 47%
18:00 +7°C° 0 mm 4 m/s 708 mmHg 53%
19:00 +5°C° 0 mm 4 m/s 709 mmHg 60%
20:00 +3°C° 0 mm 3 m/s 709 mmHg 66%
21:00 +1°C° 0 mm 3 m/s 709 mmHg 72%
22:00 +1°C° 0 mm 3 m/s 709 mmHg 75%
23:00 +1°C° 0 mm 3 m/s 709 mmHg 78%

Depois de amanhã, 16 Abril, Sexta-feira

Tempo Temperatura Precipitação Vento Pressão Humidade
00:00 0°C° 0 mm 3 m/s 709 mmHg 81%
01:00 0°C° 0 mm 3 m/s 709 mmHg 83%
02:00 0°C° 0 mm 3 m/s 709 mmHg 85%
03:00 -1°C° 0 mm 3 m/s 708 mmHg 87%
04:00 0°C° 0 mm 3 m/s 709 mmHg 87%
05:00 0°C° 0 mm 3 m/s 709 mmHg 87%
06:00 0°C° 0 mm 3 m/s 709 mmHg 87%
07:00 +1°C° 0 mm 4 m/s 709 mmHg 77%
08:00 +2°C° 0 mm 5 m/s 709 mmHg 67%
09:00 +4°C° 0 mm 6 m/s 710 mmHg 58%
10:00 +5°C° 0 mm 6 m/s 710 mmHg 53%
11:00 +5°C° 0 mm 7 m/s 710 mmHg 48%
12:00 +6°C° 0 mm 7 m/s 709 mmHg 44%
13:00 +6°C° 0 mm 7 m/s 709 mmHg 43%
14:00 +6°C° 0 mm 8 m/s 709 mmHg 42%
15:00 +6°C° 0 mm 8 m/s 709 mmHg 42%
16:00 +5°C° 0 mm 7 m/s 709 mmHg 48%
17:00 +4°C° 0 mm 6 m/s 710 mmHg 54%
18:00 +3°C° 0 mm 6 m/s 710 mmHg 61%
19:00 +2°C° 0 mm 5 m/s 710 mmHg 66%
20:00 +3°C° 0 mm 4 m/s 711 mmHg 72%
21:00 +2°C° 0 mm 3 m/s 711 mmHg 78%
22:00 +2°C° 0.1 mm 3 m/s 711 mmHg 81%
23:00 +2°C° 0.1 mm 3 m/s 711 mmHg 84%

17 Abril, Sábado

Tempo Temperatura Precipitação Vento Pressão Humidade
00:00 +2°C° 0.1 mm 3 m/s 710 mmHg 87%
01:00 +1°C° 0.3 mm 3 m/s 710 mmHg 89%
02:00 +1°C° 0.3 mm 3 m/s 710 mmHg 92%
03:00 +2°C° 0.3 mm 2 m/s 710 mmHg 94%
04:00 +1°C° 0.2 mm 3 m/s 710 mmHg 93%
05:00 +1°C° 0.2 mm 3 m/s 710 mmHg 91%
06:00 +1°C° 0.2 mm 3 m/s 710 mmHg 90%
07:00 +1°C° 0 mm 4 m/s 710 mmHg 81%
08:00 +2°C° 0 mm 5 m/s 711 mmHg 72%
09:00 +3°C° 0 mm 5 m/s 711 mmHg 63%
10:00 +4°C° 0 mm 6 m/s 711 mmHg 59%
11:00 +7°C° 0 mm 6 m/s 711 mmHg 54%
12:00 +8°C° 0 mm 6 m/s 711 mmHg 49%
13:00 +8°C° 0 mm 6 m/s 710 mmHg 47%
14:00 +9°C° 0 mm 6 m/s 710 mmHg 45%
15:00 +9°C° 0 mm 6 m/s 710 mmHg 43%
16:00 +8°C° 0 mm 6 m/s 710 mmHg 48%
17:00 +6°C° 0 mm 5 m/s 710 mmHg 54%
18:00 +5°C° 0 mm 4 m/s 711 mmHg 60%
19:00 +4°C° 0 mm 4 m/s 711 mmHg 67%
20:00 +2°C° 0 mm 3 m/s 712 mmHg 74%
21:00 +1°C° 0 mm 3 m/s 712 mmHg 81%
22:00 +1°C° 0 mm 3 m/s 712 mmHg 81%
23:00 +2°C° 0 mm 3 m/s 712 mmHg 81%

18 Abril, Domingo

Tempo Temperatura Precipitação Vento Pressão Humidade
00:00 +2°C° 0 mm 3 m/s 712 mmHg 81%
01:00 +2°C° 0 mm 3 m/s 711 mmHg 82%
02:00 +2°C° 0 mm 3 m/s 711 mmHg 82%
03:00 +2°C° 0 mm 3 m/s 711 mmHg 82%
04:00 +2°C° 0 mm 3 m/s 711 mmHg 83%
05:00 +2°C° 0 mm 2 m/s 711 mmHg 84%
06:00 +2°C° 0 mm 2 m/s 711 mmHg 85%
07:00 +3°C° 0 mm 3 m/s 711 mmHg 76%
08:00 +7°C° 0 mm 3 m/s 711 mmHg 67%
09:00 +9°C° 0 mm 3 m/s 711 mmHg 59%
10:00 +11°C° 0 mm 3 m/s 711 mmHg 53%
11:00 +12°C° 0 mm 3 m/s 710 mmHg 47%
12:00 +14°C° 0 mm 3 m/s 710 mmHg 40%
13:00 +16°C° 0 mm 3 m/s 710 mmHg 39%
14:00 +17°C° 0 mm 3 m/s 709 mmHg 37%
15:00 +17°C° 0 mm 3 m/s 709 mmHg 35%
16:00 +16°C° 0 mm 3 m/s 709 mmHg 42%
17:00 +15°C° 0 mm 2 m/s 709 mmHg 49%
18:00 +14°C° 0 mm 2 m/s 708 mmHg 55%
19:00 +12°C° 0 mm 2 m/s 709 mmHg 59%
20:00 +10°C° 0 mm 1 m/s 709 mmHg 63%
21:00 +9°C° 0 mm 1 m/s 709 mmHg 67%
22:00 +8°C° 0 mm 1 m/s 709 mmHg 67%
23:00 +8°C° 0 mm 1 m/s 708 mmHg 67%

19 Abril, Segunda-feira

Tempo Temperatura Precipitação Vento Pressão Humidade
00:00 +8°C° 0 mm 1 m/s 708 mmHg 67%
01:00 +8°C° 0 mm 1 m/s 708 mmHg 67%
02:00 +8°C° 0 mm 1 m/s 708 mmHg 66%
03:00 +8°C° 0 mm 1 m/s 707 mmHg 65%
04:00 +8°C° 0 mm 1 m/s 707 mmHg 65%
05:00 +8°C° 0 mm 1 m/s 707 mmHg 65%
06:00 +9°C° 0 mm 1 m/s 707 mmHg 65%
07:00 +9°C° 0 mm 1 m/s 707 mmHg 64%
08:00 +10°C° 0 mm 1 m/s 707 mmHg 62%
09:00 +11°C° 0 mm 1 m/s 707 mmHg 61%
10:00 +10°C° 0.2 mm 1 m/s 707 mmHg 66%
11:00 +9°C° 0.2 mm 2 m/s 707 mmHg 72%
12:00 +8°C° 0.2 mm 2 m/s 707 mmHg 78%
13:00 +8°C° 0.2 mm 2 m/s 706 mmHg 80%
14:00 +8°C° 0.2 mm 2 m/s 706 mmHg 82%
15:00 +8°C° 0.2 mm 2 m/s 706 mmHg 85%
16:00 +7°C° 0.2 mm 2 m/s 706 mmHg 86%
17:00 +7°C° 0.2 mm 2 m/s 706 mmHg 88%
18:00 +8°C° 0.2 mm 1 m/s 706 mmHg 90%
19:00 +8°C° 0.1 mm 1 m/s 706 mmHg 90%
20:00 +8°C° 0.1 mm 1 m/s 706 mmHg 90%
21:00 +8°C° 0.1 mm 1 m/s 706 mmHg 90%
22:00 +8°C° 0 mm 1 m/s 706 mmHg 90%
23:00 +8°C° 0 mm 1 m/s 705 mmHg 90%
Mostrar mais

Necessitamos do seu Consentimento

A Meteoprog e os seus Fornecedores de Serviços podem armazenar e aceder a dados pessoais como cookies, identificadores do dispositivo ou outras tecnologias semelhantes existentes no seu dispositivo e processar estes dados para personalizar conteúdos e anúncios, assim como funcionalidades nas redes sociais e análise de tráfego.

  • Armazenar e/ou aceder a informações no seu dispositivo

    Os cookies, identificadores do dispositivo ou outras informações podem ser armazenados ou acedidos no seu dispositivo, para os fins acima indicados.

  • Anúncios e conteúdos personalizados, medição de anúncios e conteúdos, dados sobre o público-alvo e desenvolvimento de produtos

    Os anúncios e os conteúdos podem ser personalizados com base num perfil. Podem ser adicionados dados adicionais para uma maior personalização dos anúncios e dos conteúdos. A eficácia dos anúncios e dos conteúdos pode ser medida. Podem ser obtidas informações sobre o público que visualizou os anúncios e os conteúdos. Estes dados podem ser usados para desenvolver ou melhorar sistemas, softwares ou a experiência do utilizador.

Ao clicar em "Eu concordo”, permitirá o uso de cookies, identificadores do dispositivo e web beacons mencionados ou outras tecnologias semelhantes. As configurações do navegador do seu dispositivo podem ser alteradas.

Para certos fins, podem ser invocados interesses legítimos ao invés de consentimento. Pode ler mais informação sobre este assunto na nossa Política de Privacidade e Cookies.